Flag for Norway Weather past 2 weeks in Fetsund, Norway

Now
50 °F

Cool.


Feels Like: 50 °F
Forecast: 50 / 55 °F
Wind: 1 mph from East

Location: Oslo-Blindern

Current Time: Sep 4, 2015 at 10:38:22 AM

Latest Report: Sep 4, 2015 at 9:00 AM


Visibility: N/A

Pressure: 29.87 "Hg

Humidity: 95%

Dew point: 49 °F

Location of FetsundLocation

Historic Weather in Fetsund — Graph

°F

Fetsund temperature yesterday

Maximum temperature yesterday: 63 °F (at 1:00 PM)
Minimum temperature yesterday: 52 °F (at 4:00 AM)
Average temperature yesterday: 55 °F

Past Weeks' High & Low Weather Summary

 TemperatureHumidityPressure
High77 °F (Aug 23, 5:00 PM)98% (Aug 28, 1:00 AM)30.37 "Hg (Aug 28, 1:00 AM)
Low46 °F (Sep 4, 7:00 AM)33% (Aug 22, 4:00 PM)29.47 "Hg (Aug 27, 5:00 PM)
Average60 °F76%29.94 "Hg
* Reported Aug 20 9:00 AM — Sep 4 9:00 AM, Fetsund, Weather by CustomWeather, © 2015

Note: Actual official high and low records may vary slightly from our data, if they occured in-between our weather recording intervals... More about our weather records

Advertising

Fetsund weather history for previous 24 hours

 ConditionsComfort  
Time TempWeatherWind HumidityBarometerVisibility
9:00 AM
Fri, Sep 4
50 °FCool.1 mph95%29.87 "HgN/A
8:00 AM49 °FLow clouds.1 mph95%29.87 "Hg9 mi
7:00 AM46 °FCool.No wind97%29.88 "HgN/A
6:00 AM47 °FCool.1 mph97%29.88 "HgN/A
5:00 AM47 °FPassing clouds.1 mph96%29.89 "Hg25 mi
4:00 AM47 °FCool.2 mph96%29.90 "HgN/A
3:00 AM47 °FCool.2 mph96%29.91 "HgN/A
2:00 AM48 °FPassing clouds.2 mph95%29.90 "Hg43 mi
1:00 AM50 °FCool.2 mph93%29.90 "HgN/A
12:00 AM51 °FCool.2 mph92%29.90 "HgN/A
10:00 PM
Thu, Sep 3
53 °FCool.3 mph89%29.91 "HgN/A
9:00 PM53 °FCool.3 mph90%29.90 "HgN/A
8:00 PM55 °FScattered clouds.2 mph85%29.89 "Hg40 mi
7:00 PM57 °FCool.2 mph84%29.88 "HgN/A
6:00 PM58 °FCool.1 mph83%29.88 "HgN/A
5:00 PM60 °FSprinkles. Partly sunny.2 mph73%29.88 "Hg34 mi
4:00 PM61 °FCool.2 mph68%29.88 "HgN/A
3:00 PM55 °FCool.2 mph92%29.88 "HgN/A
2:00 PM57 °FSprinkles. Low clouds.5 mph79%29.88 "Hg16 mi
1:00 PM63 °FMild.1 mph68%29.86 "HgN/A
12:00 PM60 °FCool.2 mph80%29.86 "HgN/A
11:00 AM61 °FLow clouds.3 mph82%29.86 "Hg12 mi
10:00 AM55 °FCool.3 mph91%29.85 "HgN/A
Weather by CustomWeather, © 2015

See weather overviewHow to use our weather pages